www.pogodaiklimat.ru

Погода и климат >> Архив погоды >> Индонезия >> Набире


ПОГОДА в Набире

  • Прогноз погоды в Набире
  • Монитор погоды в Набире

АРХИВ ПОГОДЫ в Набире

Время (UTC), дата Ветер
(напр.,м/с)
 
Видим.   Явления Облачность Т
(С)
Тd
(С)
f
(%)
Тe
(С)
Тes
(С)
Комфортность P
(гПа)
Po
(гПа)
Тmin
(С)
Tmax
(С)
R
(мм)
R24
(мм)
S
(см)
00 14.06 штиль 0 7000 м 9/4 450 м
[Cu Sc Ac As Ci sp]
+27.5 +23.9 81 +38 +42 очень
душно
1009.6 1008.9 +25.4 0.0
03 14.06 СЗ 3 10 км 10/3 450 м
[Cu med, cong Ac trans Ci sp]
+31.0 +25.1 71 +45 +50 опасность
перегрева
1008.1 1007.4
06 14.06 С 3 8000 м 8/4 480 м
[Cu med, cong Ac trans Ci fib]
+31.1 +25.1 70 +45 +47 опасность
перегрева
1005.4 1004.7
09 14.06 СЗ 1 4000 м слаб. дождь 9/8 450 м
[Cb cap Ac As Ci sp]
+30.5 +24.6 71 +43 +43 опасность
перегрева
1006.8 1006.1 0.0
12 14.06 Ю 2 4000 м гроза без осадков 10/5 450 м
[Cb cap Ac As Ci sp]
+25.8 +24.4 92 +36 +36 очень
душно
1008.9 1008.2 +32.2 0.0
21 14.06 ЮВ 2 5000 м 10/6 420 м
[Cu Sc Ac As Ci ing]
+24.9 +23.5 92 +34 +34 очень
душно
1009.3 1008.5
00 15.06 СВ 3 3000 м 10/6 540 м
[Cu Sc As op]
+26.0 +25.0 94 +37 +38 очень
душно
1011.5 1010.7 +24.7 7 7
03 15.06 СЗ 3 7000 м 9/4 450 м
[Cu Sc Ac As Ci sp]
+28.7 +24.9 80 +41 +46 опасность
перегрева
1009.7 1009.0 0.0
06 15.06 СЗ 4 8000 м 9/4 480 м
[Cu Sc Ac As Ci sp]
+30.2 +26.2 79 +46 +48 опасность
перегрева
1007.3 1006.6
09 15.06 СВ 3 5000 м слаб. дождь 10/5 450 м
[Cu Sc As op Ci sp]
+28.4 +24.6 80 +40 +40 очень
душно
1008.4 1007.6 0.0
12 15.06 Ю 2 5000 м слаб. дождь 10/5 480 м
[Cu Sc As op Ci sp]
+26.0 +24.8 93 +37 +37 очень
душно
1010.8 1010.1 +31.2 0.0
21 15.06 Ю 4 6000 м 9/4 480 м
[Cu Sc Ac As Ci sp]
+24.4 +23.2 93 +33 +33 очень
душно
1009.0 1008.3
00 16.06 Ю 4 8000 м 9/4 500 м
[Cu Sc Ac trans Ci fib]
+26.6 +24.3 87 +37 +39 очень
душно
1010.0 1009.3 +24.3 2
03 16.06 Ю 4 10 км 5/3 500 м
[Cu med, cong Ac trans Ci fib]
+29.6 +23.9 71 +41 +48 опасность
перегрева
1008.3 1007.6
06 16.06 СЗ 3 10 км 6/4 500 м
[Cu med, cong Ac trans Ci fib]
+30.7 +25.4 73 +45 +48 опасность
перегрева
1006.4 1005.6
09 16.06 З 2 6000 м 9/5 480 м
[Cb cap Ac trans Ci sp]
+29.3 +23.7 72 +40 +40 очень
душно
1008.1 1007.3
12 16.06 Ю 3 5000 м 9/4 450 м
[Cb cap Ac As Ci sp]
+26.7 +23.8 84 +37 +37 очень
душно
1010.0 1009.1 +31.4
21 16.06 штиль 0 1000 м слаб. дождь 10/6 400 м
[Cu Sc Ac As Ci sp]
+24.7 +23.8 95 +34 +34 очень
душно
1009.0 1009.0 5
00 17.06 ЮЗ 3 4000 м осадки на расстоянии 10/6 400 м
[Cu Sc As op]
+26.2 +24.6 91 +37 +38 очень
душно
1010.5 1009.8 +24.2 1 9
03 17.06 СЗ 5 7000 м 9/5 480 м
[Cu Sc Ac As Ci sp]
+29.4 +25.4 79 +43 +46 опасность
перегрева
1008.9 1008.2
06 17.06 СЗ 5 8000 м 9/5 480 м
[Cu Sc Ac und Ci sp]
+30.4 +25.2 74 +44 +46 опасность
перегрева
1007.2 1006.5
09 17.06 Ю 3 6000 м слаб. дождь 9/5 450 м
[Cb cap Ac As Ci sp]
+25.3 +23.4 89 +34 +34 очень
душно
1008.7 1008.0 3
12 17.06 Ю 2 5000 м {дождь} 9/5 480 м
[Cu Sc Ac As Ci sp]
+25.2 +23.8 92 +34 +34 очень
душно
1010.7 1010.0 +32.8 0.0
21 17.06 Ю 2 6000 м 10/4 500 м
[Cu Sc Ac As Ci sp]
+24.7 +23.7 94 +34 +34 очень
душно
1009.2 1008.5
00 18.06 Ю 2 8000 м 8/3 500 м
[Cu med, cong Ac trans Ci sp]
+26.6 +23.9 85 +37 +41 очень
душно
1009.9 1009.2 +24.7 3
03 18.06 З 2 10 км 8/4 500 м
[Cu med, cong Ac trans Ci sp]
+29.8 +23.9 71 +41 +49 опасность
перегрева
1007.8 1007.0
06 18.06 СЗ 4 7000 м 9/4 500 м
[Cu Sc Ac As Ci sp]
+31.1 +24.9 70 +45 +47 опасность
перегрева
1006.1 1005.3
09 18.06 ЮЗ 4 6000 м 10/4 500 м
[Cu Sc Ac As Ci sp]
+27.4 +22.8 76 +36 +36 очень
душно
1007.4 1006.7
12 18.06 Ю 2 5000 м 10/4 480 м
[Cu Sc Ac As Ci sp]
+25.8 +22.3 81 +34 +34 очень
душно
1009.2 1008.5 +32.2
21 18.06 Ю 7 5000 м 10/4 480 м
[Cu Sc Ac As Ci sp]
+24.3 +22.2 88 +32 +32 очень
душно
1007.6 1006.8
00 19.06 ЮЗ 2 8000 м 9/3 480 м
[Cu Sc Ac trans Ci sp]
+27.0 +23.7 82 +37 +41 очень
душно
1008.6 1007.9 +23.4
03 19.06 Ю 2 8000 м 8/3 480 м
[Cu med, cong Ac trans Ci sp]
+29.0 +23.1 71 +39 +48 очень
душно
1007.4 1006.7
06 19.06 СЗ 2 7000 м 9/4 480 м
[Cu Sc Ac As Ci sp]
+30.3 +22.7 64 +40 +43 очень
душно
1006.2 1005.5
09 19.06 Ю 4 7000 м 9/4 480 м
[Cu Sc Ac As Ci sp]
+28.4 +22.9 72 +38 +38 очень
душно
1006.9 1006.2
12 19.06 ЮВ 2 4000 м 9/6 420 м
[Cu Sc Ac As Ci ing]
+26.5 +22.8 80 +35 +35 очень
душно
1009.1 1008.4 +31.0
21 19.06 Ю 1 6000 м 8/3 480 м
[Cu Sc Ac As Ci sp]
+24.3 +22.9 92 +32 +32 очень
душно
1007.2 1006.5
00 20.06 ЮЗ 3 8000 м 8/3 480 м
[Cu med, cong Ac trans Ci sp]
+28.2 +24.4 80 +40 +43 очень
душно
1008.9 1008.2 +24.1
03 20.06 С 3 8000 м 8/4 450 м
[Cu med, cong Ac trans Ci sp]
+30.5 +24.7 71 +43 +50 опасность
перегрева
1007.7 1006.9
06 20.06 СЗ 3 10 км 9/4 500 м
[Cu med, cong Ac trans Ci fib]
+31.3 +24.0 65 +43 +45 опасность
перегрева
1006.3 1005.6
09 20.06 Ю 1 5000 м 8/4 480 м
[Cu Sc Ac As Ci sp]
+29.5 +23.8 71 +40 +40 очень
душно
1007.8 1007.1
12 20.06 Ю 4 5000 м 8/3 600 м
[Cu Sc Ac As Ci sp]
+27.2 +22.6 76 +36 +36 очень
душно
1009.9 1009.2 +32.0
21 20.06 Ю 2 10 км 4/1 600 м
[Cu hum Ac trans Ci fib]
+24.0 +22.2 90 +31 +31 очень
душно
1008.8 1008.1

 

Местоположение метеостанции Набире (Индонезия): широта -3.33 долгота 135.50 высота над уровнем моря 3 м.

В архиве по умолчанию представлена погода в Набире за последнюю неделю. Архивные данные за месяц целиком и за предыдущие месяцы, начиная с января 2011 года, Вы можете получить, выбрав интересующий диапазон дат из раскрывающегося списка и нажав кнопку "Ввод!".


*Определитесь, кто Вы:
робот инопланетянин человек

Внимание! Время в таблицах - всемирное. Для получения местного времени необходимо прибавить поправку, которая равна 9 ч.

Смотрите также архив погоды в соседних городах и на ближайших метеорологических станциях:

Погода в Энаротали (Индонезия) (117 км)
Погода в Серуи (Индонезия) (182 км)
Погода в Каимана (Индонезия) (198 км)
Погода в Биаке (Индонезия) (249 км)
Погода в Коконао (Индонезия) (285 км)
Погода в Маноквари (Индонезия) (317 км)
Погода в Факфаке (Индонезия) (363 км)
Погода в Вамене (Индонезия) (392 км)
Погода в Сарми (Индонезия) (394 км)
Погода в Туале (Индонезия) (402 км)

Пояснения к столбцам:

Ветер - указаны скорость ветра в м/с - средняя за 10 мин, порывы в срок и между сроками (в фигурных скобках) и направление, откуда дует ветер: С - северный, СВ - северо-восточный, В - восточный, ЮВ - юго-восточный, Ю - южный, ЮЗ - юго-западный, З - западный, СЗ - северо-западный.
Видимость - горизонтальная дальность видимости в метрах или километрах. При видимости от 1 до 10 км при отсутствии осадков обычно наблюдается дымка, при ухудшении видимости до 1 км и менее - туман. В сухую погоду видимость может ухудшаться дымом, пылью или мглою.
Явления - указаны атмосферные явления, наблюдавшиеся в срок или в последний час перед сроком; фигурными скобками обозначены явления, наблюдавшиеся между сроками (за 1-3 часа до срока); квадратными скобками обозначены град или гололедные отложения с указанием их диаметра в мм.
Облачность - указаны через наклонную черту общая и нижняя облачность в баллах и высота нижней границы облаков в метрах; квадратными скобками обозначены формы облаков: Ci - перистые, Cs - перисто-слоистые, Cc - перисто-кучевые, Ac - высококучевые, As - высокослоистые, Sc - слоисто-кучевые, Ns - слоисто-дождевые, Cu - кучевые, Cb - кучево-дождевые. Подробнее классификацию облаков см. в Атласе облаков (PDF).
T - Температура воздуха - температура, измеренная на высоте 2 м над землей.
Td - Температура точки росы - температура, при понижении до которой содержащийся в воздухе водяной пар достигнет насыщения.
f - Относительная влажность воздуха - влажноcть воздуха, измеренная на высоте 2 м над землей.
Te - Эффективная температура - температура, которую ощущает одетый по сезону человек в тени. Характеристика душности погоды. При расчете учитывается влияние влажности воздуха и скорости ветра на теплоощущения человека.
Tes - Эффективная температура на солнце - температура, которую ощущает человек, с поправкой на солнечный нагрев. Характеристика знойности погоды. Зависит от высоты солнца над горизонтом, облачности и скорости ветра. Ночью, в пасмурную погоду, а также при ветре 12 м/с и более поправка равна нулю.
P - Атмосферное давление - приведенное к уровню моря атмосферное давление.
Po - Атмосферное давление - измеренное на уровне метеостанции атмосферное давление.
Tmin - Минимальная температура - минимум температуры воздуха на высоте 2 м над землей.
Tmax - Максимальная температура - максимум температуры воздуха на высоте 2 м над землей.
R - Количество осадков - Количество выпавших осадков за период времени, мм. При наведении курсора мыши на число - период времени, за который выпало указанное количество осадков.
R24 - Количество осадков - Количество выпавших осадков за 24 часа, мм.
S - Снежный покров - Высота снежного покрова, см. При наведении курсора мыши на число - состояние снежного покрова и степень покрытия местности в баллах.